Location: Asbacherhof
(48.8543°N, 10.7903°E)
Time: 17:03:31
(UTC+00:00)

Cosmos 2237 Rocket - Pass Details

Date: 26 May 2022
Orbit: 834 x 850 km, 71.0° (Epoch: 06 July)

Event Time Altitude Azimuth Distance (km) Brightness Sun altitude
Exits shadow 01:11:42 19° 236° (SW) 1,892 3.5 -15.3°
Maximum altitude 01:15:33 50° 305° (NW) 1,070 2.8 -15.0°
Drops below altitude 10° 01:21:07 10° 21° (NNE) 2,487 6.0 -14.5°
Sets 01:23:40 0° 27° (NNE) 3,427 7.3 -14.3°
